Time,TemperatureF,DewpointF,PressureIn,WindDirection,WindDirectionDegrees,WindSpeedMPH,WindSpeedGustMPH,Humidity,HourlyPrecipIn,Conditions,Clouds,dailyrainin,SolarRadiationWatts/m^2,SoftwareType,DateUTC
2013-07-26 00:02:00,65.0,52.0,-100.00,ESE,112,1.0,5.0,62,0.00,,,0.00,0.000000,,2013-07-26 07:02:00,
2013-07-26 00:32:00,65.0,52.0,-100.00,ESE,112,1.0,5.0,62,0.00,,,0.00,0.000000,,2013-07-26 07:32:00,
2013-07-26 00:43:00,65.0,52.0,-100.00,ESE,112,1.0,5.0,62,0.00,,,0.00,0.000000,,2013-07-26 07:43:00,
2013-07-26 00:53:00,65.0,52.0,-100.00,ESE,112,1.0,5.0,62,0.00,,,0.00,0.000000,,2013-07-26 07:53:00,
2013-07-26 01:02:00,64.0,51.0,-100.00,East,97,1.0,6.0,63,0.00,,,0.00,0.000000,,2013-07-26 08:02:00,
2013-07-26 01:32:00,64.0,51.0,-100.00,East,97,1.0,6.0,63,0.00,,,0.00,0.000000,,2013-07-26 08:32:00,
2013-07-26 01:44:00,64.0,51.0,-100.00,East,97,1.0,6.0,63,0.00,,,0.00,0.000000,,2013-07-26 08:44:00,
2013-07-26 01:52:00,64.0,51.0,-100.00,East,97,1.0,6.0,63,0.00,,,0.00,0.000000,,2013-07-26 08:52:00,
2013-07-26 02:02:00,63.0,52.0,-100.00,ESE,111,1.0,3.0,67,0.00,,,0.00,0.000000,,2013-07-26 09:02:00,
2013-07-26 02:32:00,63.0,52.0,-100.00,ESE,111,1.0,3.0,67,0.00,,,0.00,0.000000,,2013-07-26 09:32:00,
2013-07-26 02:43:00,63.0,52.0,-100.00,ESE,111,1.0,3.0,67,0.00,,,0.00,0.000000,,2013-07-26 09:43:00,
2013-07-26 02:52:00,63.0,52.0,-100.00,ESE,111,1.0,3.0,67,0.00,,,0.00,0.000000,,2013-07-26 09:52:00,
2013-07-26 03:02:00,61.0,50.0,-100.00,ESE,102,1.0,4.0,67,0.00,,,0.00,0.000000,,2013-07-26 10:02:00,
2013-07-26 03:33:00,61.0,50.0,-100.00,ESE,102,1.0,4.0,67,0.00,,,0.00,0.000000,,2013-07-26 10:33:00,
2013-07-26 03:42:00,61.0,50.0,-100.00,ESE,102,1.0,4.0,67,0.00,,,0.00,0.000000,,2013-07-26 10:42:00,
2013-07-26 03:52:00,61.0,50.0,-100.00,ESE,102,1.0,4.0,67,0.00,,,0.00,0.000000,,2013-07-26 10:52:00,
2013-07-26 04:02:00,60.0,49.0,-100.00,East,80,1.0,2.0,67,0.00,,,0.00,0.000000,,2013-07-26 11:02:00,
2013-07-26 04:32:00,60.0,49.0,-100.00,East,80,1.0,2.0,67,0.00,,,0.00,0.000000,,2013-07-26 11:32:00,
2013-07-26 04:43:00,60.0,49.0,-100.00,East,80,1.0,2.0,67,0.00,,,0.00,0.000000,,2013-07-26 11:43:00,
2013-07-26 04:52:00,60.0,49.0,-100.00,East,80,1.0,2.0,67,0.00,,,0.00,0.000000,,2013-07-26 11:52:00,
2013-07-26 05:02:00,60.0,49.0,-100.00,ENE,67,0.0,4.0,66,0.00,,,0.00,0.000000,,2013-07-26 12:02:00,
2013-07-26 05:33:00,60.0,49.0,-100.00,ENE,67,0.0,4.0,66,0.00,,,0.00,0.000000,,2013-07-26 12:33:00,
2013-07-26 05:43:00,60.0,49.0,-100.00,ENE,67,0.0,4.0,66,0.00,,,0.00,0.000000,,2013-07-26 12:43:00,
2013-07-26 05:53:00,60.0,49.0,-100.00,ENE,67,0.0,4.0,66,0.00,,,0.00,0.000000,,2013-07-26 12:53:00,
2013-07-26 06:02:00,59.0,50.0,-100.00,ESE,121,0.0,3.0,71,0.00,,,0.00,1.000000,,2013-07-26 13:02:00,
2013-07-26 06:32:00,59.0,50.0,-100.00,ESE,121,0.0,3.0,71,0.00,,,0.00,1.000000,,2013-07-26 13:32:00,
2013-07-26 06:43:00,59.0,50.0,-100.00,ESE,121,0.0,3.0,71,0.00,,,0.00,1.000000,,2013-07-26 13:43:00,
2013-07-26 06:53:00,59.0,50.0,-100.00,ESE,121,0.0,3.0,71,0.00,,,0.00,1.000000,,2013-07-26 13:53:00,
2013-07-26 07:02:00,60.0,50.0,-100.00,East,95,0.0,2.0,69,0.00,,,0.00,29.000000,,2013-07-26 14:02:00,
2013-07-26 07:33:00,60.0,50.0,-100.00,East,95,0.0,2.0,69,0.00,,,0.00,29.000000,,2013-07-26 14:33:00,
2013-07-26 07:43:00,60.0,50.0,-100.00,East,95,0.0,2.0,69,0.00,,,0.00,29.000000,,2013-07-26 14:43:00,
2013-07-26 07:53:00,60.0,50.0,-100.00,East,95,0.0,2.0,69,0.00,,,0.00,29.000000,,2013-07-26 14:53:00,
2013-07-26 08:02:00,68.0,54.0,-100.00,East,85,1.0,4.0,61,0.00,,,0.00,84.000000,,2013-07-26 15:02:00,
2013-07-26 08:33:00,68.0,54.0,-100.00,East,85,1.0,4.0,61,0.00,,,0.00,84.000000,,2013-07-26 15:33:00,
2013-07-26 08:43:00,68.0,54.0,-100.00,East,85,1.0,4.0,61,0.00,,,0.00,84.000000,,2013-07-26 15:43:00,
2013-07-26 08:53:00,68.0,54.0,-100.00,East,85,1.0,4.0,61,0.00,,,0.00,84.000000,,2013-07-26 15:53:00,
2013-07-26 09:02:00,77.0,57.0,-100.00,West,262,1.0,3.0,50,0.00,,,0.00,389.000000,,2013-07-26 16:02:00,
2013-07-26 09:32:00,77.0,57.0,-100.00,West,262,1.0,3.0,50,0.00,,,0.00,389.000000,,2013-07-26 16:32:00,
2013-07-26 09:43:00,77.0,57.0,-100.00,West,262,1.0,3.0,50,0.00,,,0.00,389.000000,,2013-07-26 16:43:00,
2013-07-26 09:54:00,77.0,57.0,-100.00,West,262,1.0,3.0,50,0.00,,,0.00,389.000000,,2013-07-26 16:54:00,
2013-07-26 10:02:00,81.0,54.0,-100.00,NW,323,3.0,8.0,39,0.00,,,0.00,560.000000,,2013-07-26 17:02:00,
2013-07-26 10:33:00,81.0,54.0,-100.00,NW,323,3.0,8.0,39,0.00,,,0.00,560.000000,,2013-07-26 17:33:00,
2013-07-26 10:43:00,81.0,54.0,-100.00,NW,323,3.0,8.0,39,0.00,,,0.00,560.000000,,2013-07-26 17:43:00,
2013-07-26 10:53:00,81.0,54.0,-100.00,NW,323,3.0,8.0,39,0.00,,,0.00,560.000000,,2013-07-26 17:53:00,
2013-07-26 11:02:00,83.0,55.0,-100.00,NW,315,3.0,8.0,39,0.00,,,0.00,729.000000,,2013-07-26 18:02:00,
2013-07-26 11:33:00,83.0,55.0,-100.00,NW,315,3.0,8.0,39,0.00,,,0.00,729.000000,,2013-07-26 18:33:00,
2013-07-26 11:44:00,83.0,55.0,-100.00,NW,315,3.0,8.0,39,0.00,,,0.00,729.000000,,2013-07-26 18:44:00,
2013-07-26 11:52:00,83.0,55.0,-100.00,NW,315,3.0,8.0,39,0.00,,,0.00,729.000000,,2013-07-26 18:52:00,
2013-07-26 12:32:00,85.0,55.0,-100.00,NNW,345,4.0,12.0,36,0.00,,,0.00,878.000000,,2013-07-26 19:32:00,
2013-07-26 12:43:00,85.0,55.0,-100.00,NNW,345,4.0,12.0,36,0.00,,,0.00,878.000000,,2013-07-26 19:43:00,
2013-07-26 12:52:00,85.0,55.0,-100.00,NNW,345,4.0,12.0,36,0.00,,,0.00,878.000000,,2013-07-26 19:52:00,
2013-07-26 13:01:00,85.0,55.0,-100.00,NNW,345,4.0,12.0,36,0.00,,,0.00,878.000000,,2013-07-26 20:01:00,
2013-07-26 13:32:00,84.0,53.0,-100.00,NW,315,5.0,12.0,35,0.00,,,0.00,840.000000,,2013-07-26 20:32:00,
2013-07-26 13:43:00,84.0,53.0,-100.00,NW,315,5.0,12.0,35,0.00,,,0.00,840.000000,,2013-07-26 20:43:00,
2013-07-26 13:53:00,84.0,53.0,-100.00,NW,315,5.0,12.0,35,0.00,,,0.00,840.000000,,2013-07-26 20:53:00,
2013-07-26 14:01:00,84.0,53.0,-100.00,NW,315,5.0,12.0,35,0.00,,,0.00,840.000000,,2013-07-26 21:01:00,
2013-07-26 15:02:00,88.0,53.0,-100.00,NW,311,4.0,13.0,30,0.00,,,0.00,861.000000,,2013-07-26 22:02:00,
2013-07-26 15:33:00,88.0,53.0,-100.00,NW,311,4.0,13.0,30,0.00,,,0.00,861.000000,,2013-07-26 22:33:00,
2013-07-26 15:43:00,88.0,53.0,-100.00,NW,311,4.0,13.0,30,0.00,,,0.00,861.000000,,2013-07-26 22:43:00,
2013-07-26 15:53:00,88.0,53.0,-100.00,NW,311,4.0,13.0,30,0.00,,,0.00,861.000000,,2013-07-26 22:53:00,
2013-07-26 16:32:00,88.0,51.0,-100.00,NW,319,4.0,13.0,28,0.00,,,0.00,835.000000,,2013-07-26 23:32:00,
2013-07-26 16:43:00,88.0,51.0,-100.00,NW,319,4.0,13.0,28,0.00,,,0.00,835.000000,,2013-07-26 23:43:00,
2013-07-26 16:53:00,88.0,51.0,-100.00,NW,319,4.0,13.0,28,0.00,,,0.00,835.000000,,2013-07-26 23:53:00,
2013-07-26 17:01:00,88.0,51.0,-100.00,NW,319,4.0,13.0,28,0.00,,,0.00,835.000000,,2013-07-27 00:01:00,
2013-07-26 17:02:00,86.0,49.0,-100.00,WNW,288,5.0,12.0,28,0.00,,,0.00,697.000000,,2013-07-27 00:02:00,
2013-07-26 17:32:00,86.0,49.0,-100.00,WNW,288,5.0,12.0,28,0.00,,,0.00,697.000000,,2013-07-27 00:32:00,
2013-07-26 17:43:00,86.0,49.0,-100.00,WNW,288,5.0,12.0,28,0.00,,,0.00,697.000000,,2013-07-27 00:43:00,
2013-07-26 17:53:00,86.0,49.0,-100.00,WNW,288,5.0,12.0,28,0.00,,,0.00,697.000000,,2013-07-27 00:53:00,
2013-07-26 18:02:00,84.0,48.0,-100.00,NW,307,4.0,11.0,29,0.00,,,0.00,502.000000,,2013-07-27 01:02:00,
2013-07-26 18:32:00,84.0,48.0,-100.00,NW,307,4.0,11.0,29,0.00,,,0.00,502.000000,,2013-07-27 01:32:00,
2013-07-26 18:44:00,84.0,48.0,-100.00,NW,307,4.0,11.0,29,0.00,,,0.00,502.000000,,2013-07-27 01:44:00,
2013-07-26 18:53:00,84.0,48.0,-100.00,NW,307,4.0,11.0,29,0.00,,,0.00,502.000000,,2013-07-27 01:53:00,
2013-07-26 19:02:00,79.0,47.0,-100.00,NW,315,3.0,11.0,33,0.00,,,-99.99,76.000000,,2013-07-27 02:02:00,
2013-07-26 19:32:00,79.0,47.0,-100.00,NW,315,3.0,11.0,33,0.00,,,-99.99,76.000000,,2013-07-27 02:32:00,
2013-07-26 19:43:00,79.0,47.0,-100.00,NW,315,3.0,11.0,33,0.00,,,-99.99,76.000000,,2013-07-27 02:43:00,
2013-07-26 19:53:00,79.0,47.0,-100.00,NW,315,3.0,11.0,33,0.00,,,-99.99,76.000000,,2013-07-27 02:53:00,
2013-07-26 20:02:00,74.0,49.0,-100.00,North,11,1.0,9.0,41,0.00,,,0.00,50.000000,,2013-07-27 03:02:00,
2013-07-26 20:33:00,74.0,49.0,-100.00,North,11,1.0,9.0,41,0.00,,,0.00,50.000000,,2013-07-27 03:33:00,
2013-07-26 20:44:00,74.0,49.0,-100.00,North,11,1.0,9.0,41,0.00,,,0.00,50.000000,,2013-07-27 03:44:00,
2013-07-26 20:52:00,74.0,49.0,-100.00,North,11,1.0,9.0,41,0.00,,,0.00,50.000000,,2013-07-27 03:52:00,
2013-07-26 21:32:00,68.0,50.0,-100.00,ESE,116,0.0,4.0,52,0.00,,,0.00,2.000000,,2013-07-27 04:32:00,
2013-07-26 21:43:00,68.0,50.0,-100.00,ESE,116,0.0,4.0,52,0.00,,,0.00,2.000000,,2013-07-27 04:43:00,
2013-07-26 21:53:00,68.0,50.0,-100.00,ESE,116,0.0,4.0,52,0.00,,,0.00,2.000000,,2013-07-27 04:53:00,
2013-07-26 22:01:00,68.0,50.0,-100.00,ESE,116,0.0,4.0,52,0.00,,,0.00,2.000000,,2013-07-27 05:01:00,
2013-07-26 22:02:00,65.0,49.0,-100.00,East,95,1.0,4.0,57,0.00,,,0.00,0.000000,,2013-07-27 05:02:00,
2013-07-26 22:33:00,65.0,49.0,-100.00,East,95,1.0,4.0,57,0.00,,,0.00,0.000000,,2013-07-27 05:33:00,
2013-07-26 22:43:00,65.0,49.0,-100.00,East,95,1.0,4.0,57,0.00,,,0.00,0.000000,,2013-07-27 05:43:00,
2013-07-26 22:52:00,65.0,49.0,-100.00,East,95,1.0,4.0,57,0.00,,,0.00,0.000000,,2013-07-27 05:52:00,
2013-07-26 23:02:00,62.0,48.0,-100.00,ESE,107,1.0,3.0,61,0.00,,,0.00,0.000000,,2013-07-27 06:02:00,
2013-07-26 23:33:00,62.0,48.0,-100.00,ESE,107,1.0,3.0,61,0.00,,,0.00,0.000000,,2013-07-27 06:33:00,
2013-07-26 23:43:00,62.0,48.0,-100.00,ESE,107,1.0,3.0,61,0.00,,,0.00,0.000000,,2013-07-27 06:43:00,
2013-07-26 23:52:00,62.0,48.0,-100.00,ESE,107,1.0,3.0,61,0.00,,,0.00,0.000000,,2013-07-27 06:52:00,